N80EM KLAS-KPSP

Flight info

Callsign N80EM
Flight time 0h 30m
Altitude 27000
Route RADYR2 BLAQQ ZELMA RDBUL1
Aircraft C750/M-SBDE3FGHRWXY/S

Departure

Time 2026-05-06 14:07
Airport Harry Reid International Airport (KLAS)

Arrival

Time 2026-05-06 14:38
Airport Palm Springs International Airport (KPSP)
Time Latitude Longitude Altitude Speed Heading
2026-05-06 13:51 36.07982 -115.12729 2054 ft 0 kts 270°
2026-05-06 13:57 36.07979 -115.12733 2054 ft 2 kts 221°
2026-05-06 13:57 36.07974 -115.12726 2053 ft 2 kts 114°
2026-05-06 13:58 36.07976 -115.12661 2052 ft 9 kts 91°
2026-05-06 13:58 36.07954 -115.12632 2051 ft 2 kts 182°
2026-05-06 13:58 36.07929 -115.12632 2050 ft 6 kts 178°
2026-05-06 13:58 36.07877 -115.12632 2046 ft 0 kts 180°
2026-05-06 14:05 36.07858 -115.12632 2045 ft 7 kts 180°
2026-05-06 14:05 36.07815 -115.12632 2046 ft 5 kts 180°
2026-05-06 14:06 36.07798 -115.12632 2046 ft 1 kts 180°
2026-05-06 14:06 36.07769 -115.12625 2046 ft 5 kts 151°
2026-05-06 14:06 36.07729 -115.12598 2047 ft 7 kts 159°
2026-05-06 14:06 36.07665 -115.12596 2049 ft 8 kts 187°
2026-05-06 14:07 36.07639 -115.12687 2053 ft 37 kts 270°
2026-05-06 14:07 36.07639 -115.13507 2080 ft 142 kts 269°
2026-05-06 14:07 36.07641 -115.14732 2872 ft 138 kts 268°
2026-05-06 14:07 36.07643 -115.15930 3659 ft 141 kts 269°
2026-05-06 14:08 36.07646 -115.17154 4425 ft 143 kts 271°
2026-05-06 14:08 36.07648 -115.18391 5142 ft 146 kts 272°
2026-05-06 14:08 36.07649 -115.19669 5851 ft 153 kts 272°
2026-05-06 14:08 36.07586 -115.21084 6340 ft 179 kts 263°
2026-05-06 14:09 36.07336 -115.22713 6862 ft 206 kts 262°
2026-05-06 14:09 36.07035 -115.24553 7428 ft 232 kts 256°
2026-05-06 14:09 36.06032 -115.26271 7856 ft 271 kts 218°
2026-05-06 14:09 36.04240 -115.27294 8550 ft 291 kts 199°
2026-05-06 14:10 36.02297 -115.28014 9710 ft 294 kts 197°
2026-05-06 14:10 36.00324 -115.28825 10463 ft 308 kts 201°
2026-05-06 14:10 35.98202 -115.29638 10737 ft 334 kts 193°
2026-05-06 14:10 35.95829 -115.30237 10907 ft 361 kts 191°
2026-05-06 14:11 35.93324 -115.30846 11549 ft 369 kts 191°
2026-05-06 14:11 35.90792 -115.31464 12339 ft 374 kts 191°
2026-05-06 14:11 35.88223 -115.32099 13061 ft 379 kts 191°
2026-05-06 14:11 35.85618 -115.32742 13831 ft 384 kts 191°
2026-05-06 14:12 35.82986 -115.33387 14511 ft 388 kts 191°
2026-05-06 14:12 35.80320 -115.34038 15144 ft 393 kts 191°
2026-05-06 14:12 35.77623 -115.34699 15796 ft 398 kts 191°
2026-05-06 14:12 35.74891 -115.35369 16460 ft 403 kts 191°
2026-05-06 14:13 35.72126 -115.36046 17144 ft 408 kts 191°
2026-05-06 14:13 35.69324 -115.36731 17841 ft 413 kts 191°
2026-05-06 14:13 35.66490 -115.37423 18527 ft 418 kts 191°
2026-05-06 14:13 35.63618 -115.38124 19177 ft 423 kts 191°
2026-05-06 14:14 35.60704 -115.38692 19763 ft 428 kts 182°
2026-05-06 14:14 35.57724 -115.38561 20453 ft 429 kts 174°
2026-05-06 14:14 35.54728 -115.38324 21137 ft 434 kts 175°
2026-05-06 14:14 35.51693 -115.38116 21806 ft 439 kts 175°
2026-05-06 14:15 35.48626 -115.37909 22466 ft 444 kts 175°
2026-05-06 14:15 35.45527 -115.37679 23130 ft 449 kts 174°
2026-05-06 14:15 35.42391 -115.37444 23760 ft 454 kts 174°
2026-05-06 14:15 35.39224 -115.37225 24318 ft 458 kts 174°
2026-05-06 14:16 35.36034 -115.37011 24904 ft 461 kts 174°
2026-05-06 14:16 35.32820 -115.36785 25448 ft 465 kts 174°
2026-05-06 14:16 35.29576 -115.36551 25990 ft 469 kts 174°
2026-05-06 14:16 35.26300 -115.36321 26535 ft 473 kts 173°
2026-05-06 14:17 35.23033 -115.36097 27039 ft 471 kts 173°
2026-05-06 14:17 35.19707 -115.35862 27053 ft 488 kts 173°
2026-05-06 14:17 35.16262 -115.35616 27066 ft 503 kts 173°
2026-05-06 14:17 35.12715 -115.35369 27058 ft 518 kts 173°
2026-05-06 14:18 35.09076 -115.35120 27062 ft 530 kts 174°
2026-05-06 14:18 35.05419 -115.34867 27056 ft 536 kts 174°
2026-05-06 14:18 35.01634 -115.34603 27051 ft 539 kts 173°
2026-05-06 14:18 34.97936 -115.34345 27056 ft 540 kts 174°
2026-05-06 14:19 34.94185 -115.34086 27046 ft 541 kts 174°
2026-05-06 14:19 34.90440 -115.33827 27037 ft 539 kts 174°
2026-05-06 14:19 34.86693 -115.33566 27037 ft 540 kts 173°
2026-05-06 14:19 34.82938 -115.33323 27023 ft 540 kts 175°
2026-05-06 14:20 34.79168 -115.33541 27009 ft 544 kts 184°
2026-05-06 14:20 34.75442 -115.34397 27006 ft 547 kts 192°
2026-05-06 14:20 34.71816 -115.35840 27008 ft 549 kts 198°
2026-05-06 14:20 34.68234 -115.37427 27020 ft 548 kts 198°
2026-05-06 14:21 34.64644 -115.38990 27019 ft 548 kts 198°
2026-05-06 14:21 34.61054 -115.40547 27024 ft 548 kts 198°
2026-05-06 14:21 34.57469 -115.42117 27024 ft 548 kts 198°
2026-05-06 14:21 34.53878 -115.43695 27021 ft 548 kts 198°
2026-05-06 14:22 34.50317 -115.45247 26989 ft 529 kts 198°
2026-05-06 14:22 34.46961 -115.46706 26374 ft 499 kts 198°
2026-05-06 14:22 34.43763 -115.48096 25549 ft 479 kts 198°
2026-05-06 14:22 34.40671 -115.49441 24699 ft 466 kts 198°
2026-05-06 14:23 34.37647 -115.50755 23852 ft 458 kts 198°
2026-05-06 14:23 34.34691 -115.52124 22804 ft 452 kts 203°
2026-05-06 14:23 34.32864 -115.53300 22033 ft 448 kts 211°
2026-05-06 14:23 34.30361 -115.55484 20871 ft 439 kts 220°
2026-05-06 14:24 34.28142 -115.57968 19577 ft 432 kts 224°
2026-05-06 14:24 34.25954 -115.60449 17882 ft 436 kts 223°
2026-05-06 14:24 34.23760 -115.62903 16718 ft 423 kts 223°
2026-05-06 14:24 34.21638 -115.65280 15682 ft 408 kts 224°
2026-05-06 14:25 34.19592 -115.67590 14756 ft 400 kts 224°
2026-05-06 14:25 34.17513 -115.69936 14441 ft 420 kts 224°
2026-05-06 14:25 34.15324 -115.72393 14439 ft 438 kts 223°
2026-05-06 14:25 34.13072 -115.74915 14439 ft 444 kts 223°
2026-05-06 14:26 34.10795 -115.77328 14434 ft 421 kts 218°
2026-05-06 14:26 34.08339 -115.79313 14436 ft 433 kts 213°
2026-05-06 14:26 34.05841 -115.81332 14447 ft 423 kts 214°
2026-05-06 14:26 34.03506 -115.83268 14339 ft 394 kts 214°
2026-05-06 14:27 34.01291 -115.85082 13146 ft 384 kts 214°
2026-05-06 14:27 33.99078 -115.86855 12202 ft 374 kts 213°
2026-05-06 14:27 33.96986 -115.88541 11624 ft 352 kts 214°
2026-05-06 14:27 33.94973 -115.90182 10759 ft 346 kts 214°
2026-05-06 14:28 33.93080 -115.91718 10253 ft 319 kts 213°
2026-05-06 14:28 33.91280 -115.93171 9746 ft 308 kts 213°
2026-05-06 14:28 33.89481 -115.94624 9072 ft 310 kts 213°
2026-05-06 14:28 33.87822 -115.96141 8987 ft 294 kts 225°
2026-05-06 14:29 33.86668 -115.98193 9027 ft 296 kts 240°
2026-05-06 14:29 33.85631 -116.00282 8426 ft 292 kts 239°
2026-05-06 14:29 33.84565 -116.02353 7867 ft 287 kts 239°
2026-05-06 14:29 33.83550 -116.04308 7825 ft 263 kts 239°
2026-05-06 14:30 33.82614 -116.06136 7367 ft 249 kts 239°
2026-05-06 14:30 33.81720 -116.07919 6296 ft 249 kts 241°
2026-05-06 14:30 33.81081 -116.09863 5437 ft 254 kts 258°
2026-05-06 14:30 33.80788 -116.11877 5228 ft 237 kts 262°
2026-05-06 14:31 33.80402 -116.13823 4469 ft 245 kts 252°
2026-05-06 14:31 33.79615 -116.15674 3875 ft 246 kts 243°
2026-05-06 14:31 33.79116 -116.17540 3504 ft 234 kts 266°
2026-05-06 14:31 33.79143 -116.19465 3327 ft 223 kts 273°
2026-05-06 14:32 33.79032 -116.21297 3261 ft 215 kts 262°
2026-05-06 14:32 33.78665 -116.22989 2996 ft 209 kts 252°
2026-05-06 14:32 33.78141 -116.24600 2778 ft 204 kts 249°
2026-05-06 14:32 33.77572 -116.26143 2786 ft 201 kts 245°
2026-05-06 14:33 33.76884 -116.27632 2928 ft 207 kts 241°
2026-05-06 14:33 33.76172 -116.29150 2842 ft 209 kts 243°
2026-05-06 14:33 33.75558 -116.30707 2798 ft 198 kts 247°
2026-05-06 14:33 33.75182 -116.32207 2767 ft 183 kts 260°
2026-05-06 14:34 33.75077 -116.33733 2645 ft 184 kts 270°
2026-05-06 14:34 33.75119 -116.35256 2549 ft 184 kts 273°
2026-05-06 14:34 33.75157 -116.36794 2445 ft 186 kts 272°
2026-05-06 14:34 33.75170 -116.38341 2341 ft 184 kts 271°
2026-05-06 14:35 33.75162 -116.39868 2298 ft 181 kts 271°
2026-05-06 14:35 33.75236 -116.41385 2259 ft 184 kts 275°
2026-05-06 14:35 33.75369 -116.42903 2171 ft 180 kts 282°
2026-05-06 14:35 33.75853 -116.44252 1945 ft 177 kts 304°
2026-05-06 14:36 33.76756 -116.45251 1666 ft 171 kts 324°
2026-05-06 14:36 33.77657 -116.45989 1314 ft 148 kts 324°
2026-05-06 14:36 33.78435 -116.46672 1060 ft 131 kts 324°
2026-05-06 14:36 33.79132 -116.47319 917 ft 123 kts 322°
2026-05-06 14:37 33.79811 -116.47950 792 ft 123 kts 322°
2026-05-06 14:37 33.80492 -116.48559 717 ft 123 kts 323°
2026-05-06 14:37 33.81183 -116.49175 596 ft 125 kts 323°
2026-05-06 14:37 33.81880 -116.49799 467 ft 124 kts 323°
2026-05-06 14:38 33.82539 -116.50387 417 ft 102 kts 323°
2026-05-06 14:38 33.82929 -116.50732 434 ft 44 kts 324°
2026-05-06 14:38 33.83148 -116.50927 440 ft 37 kts 323°
2026-05-06 14:38 33.83281 -116.51045 439 ft 17 kts 324°
2026-05-06 14:39 33.83325 -116.51146 448 ft 13 kts 249°
2026-05-06 14:39 33.83296 -116.51190 448 ft 9 kts 203°
2026-05-06 14:39 33.83255 -116.51201 447 ft 10 kts 182°
2026-05-06 14:39 33.83179 -116.51169 445 ft 10 kts 143°
2026-05-06 14:40 33.83054 -116.51059 428 ft 31 kts 143°
2026-05-06 14:40 33.82883 -116.50905 436 ft 31 kts 142°
2026-05-06 14:40 33.82719 -116.50750 429 ft 29 kts 143°
2026-05-06 14:40 33.82605 -116.50686 422 ft 11 kts 225°
2026-05-06 14:41 33.82554 -116.50721 424 ft 12 kts 205°
2026-05-06 14:41 33.82537 -116.50803 421 ft 10 kts 284°
2026-05-06 14:41 33.82560 -116.50847 429 ft 4 kts 287°
2026-05-06 14:41 33.82560 -116.50862 426 ft 0 kts 270°